Las Vegas, NV

1:30 PM PDT on September 27, 2016 (GMT -0700)
Nellis AFB

Weather History for KLSV - September, 2012

Change the Weather History Date:

Thursday, September 6, 2012

  Actual Average Record
Temperature  
Mean Temperature 92 °F -  
Max Temperature 100 °F 95 °F 103 °F (2008)
Min Temperature 83 °F 71 °F 62 °F (2004)
Cooling Degree Days 26    
Growing Degree Days 42 (Base 50)    
Moisture  
Dew Point 53 °F    
Average Humidity 27    
Maximum Humidity 40    
Minimum Humidity 19    
Precipitation  
Precipitation 0.00 in - - ()
Sea Level Pressure  
Sea Level Pressure 29.79 in    
Wind  
Wind Speed 12 mph (South)    
Max Wind Speed 18 mph    
Max Gust Speed 25 mph    
Visibility 10 miles    
Events      
Averages and records for this station are not official NWS values.
T = Trace of Precipitation, MM = Missing Value Source: NWS Daily Summary

Daily Weather History Graph

Daily Weather History Graph

Search for Another Location

Airport or City:

Trip Planner

Search our weather history database for the weather conditions in past years. The results will help you decide how hot, cold, wet, or windy it might be!

Date:

Astronomy

Sep. 06, 2012 Rise Set
Actual Time 6:16 AM PDT 6:59 PM PDT
Civil Twilight 5:49 AM PDT 7:25 PM PDT
Nautical Twilight 5:19 AM PDT 7:56 PM PDT
Astronomical Twilight 4:47 AM PDT 8:28 PM PDT
Moon 10:25 PM PDT (9/6) 12:06 PM PDT (9/6)
Length of Visible Light 13h 35m
Length of Day
12h 43m
Waning Gibbous, 66% of the Moon is Illuminated
Sep 6
Waning Gibbous
Sep 8
Last Quarter
Sep 15
New
Sep 22
First Quarter
Sep 29
Full

Hourly Weather History & Observations

Time (PDT) Temp. Heat Index Dew Point Humidity Pressure Visibility Wind Dir Wind Speed Gust Speed Precip Events Conditions
12:55 AM 88.2 °F 86.5 °F 55.4 °F 33% 29.78 in 10.0 mi South 12.7 mph - N/A   Mostly Cloudy
1:55 AM 87.8 °F 85.9 °F 54.5 °F 32% 29.78 in 10.0 mi South 10.4 mph - N/A   Mostly Cloudy
2:55 AM 87.1 °F 85.3 °F 54.7 °F 33% 29.78 in 10.0 mi South 10.4 mph - N/A   Mostly Cloudy
3:55 AM 86.5 °F 84.7 °F 54.1 °F 33% 29.78 in 10.0 mi SSW 10.4 mph - N/A   Overcast
4:55 AM 85.6 °F 84.0 °F 54.3 °F 34% 29.79 in 10.0 mi South 9.2 mph - N/A   Overcast
5:55 AM 85.5 °F 84.0 °F 54.5 °F 35% 29.80 in 10.0 mi South 12.7 mph - N/A   Mostly Cloudy
6:55 AM 83.1 °F 82.4 °F 56.3 °F 40% 29.84 in 10.0 mi SW 3.5 mph - N/A   Scattered Clouds
7:55 AM 86.2 °F 84.4 °F 54.3 °F 33% 29.85 in 10.0 mi South 6.9 mph - N/A   Clear
8:55 AM 87.3 °F 85.5 °F 54.5 °F 33% 29.86 in 10.0 mi South 6.9 mph - N/A   Partly Cloudy
9:55 AM 90.9 °F 88.7 °F 54.3 °F 29% 29.86 in 10.0 mi South 13.8 mph - N/A   Clear
10:55 AM 93.7 °F 91.7 °F 54.7 °F 27% 29.84 in 9.0 mi SE 8.1 mph - N/A   Clear
11:55 AM 96.8 °F - 52.7 °F 23% 29.81 in 10.0 mi South 12.7 mph 19.6 mph N/A   Clear
12:55 PM 98.6 °F - 51.6 °F 20% 29.79 in 10.0 mi SSE 12.7 mph - N/A   Clear
1:55 PM 98.8 °F - 50.5 °F 20% 29.77 in 10.0 mi South 17.3 mph - N/A   Clear
2:55 PM 100.4 °F - 50.4 °F 19% 29.75 in 10.0 mi South 17.3 mph - N/A   Clear
3:55 PM 100.6 °F - 50.5 °F 19% 29.73 in 10.0 mi South 18.4 mph 25.3 mph N/A   Clear
4:55 PM 100.2 °F - 51.6 °F 19% 29.72 in 10.0 mi SSW 15.0 mph 24.2 mph N/A   Clear
5:55 PM 98.8 °F - 51.8 °F 21% 29.72 in 10.0 mi SSW 18.4 mph - N/A   Clear
6:55 PM 97.0 °F - 51.6 °F 22% 29.74 in 10.0 mi South 12.7 mph - N/A   Clear
7:55 PM 95.0 °F - 51.3 °F 23% 29.74 in 10.0 mi South 15.0 mph - N/A   Clear
8:55 PM 93.4 °F 91.0 °F 53.2 °F 26% 29.78 in 10.0 mi South 13.8 mph - N/A   Clear
9:55 PM 91.6 °F 89.3 °F 53.8 °F 28% 29.78 in 10.0 mi South 10.4 mph - N/A   Clear
10:55 PM 90.7 °F 88.3 °F 53.8 °F 28% 29.79 in 10.0 mi South 10.4 mph - N/A   Clear
11:55 PM 89.4 °F 87.1 °F 53.1 °F 29% 29.78 in 10.0 mi South 10.4 mph - N/A   Clear